ソーホー彗星

C/1996 X2 ( SOHO )

English version
Home page
Updated on September 29, 1997

---------------------------------------------------------------------

・ プロフィール

発見日 1996年12月11日
発見光度 7.5等
発見者 SOHO-LASCO coronagraphs

・ 軌道要素

T 1996 Dec. 12.87841 TT                                 Marsden
q   0.0050221            (2000.0)            P               Q
                   Peri.   78.46236     +0.17309547     -0.98470251
                   Node   358.05902     -0.96163523     -0.16458896
e   1.0            Incl.  143.86443     +0.21282775     +0.05719650
>From 10 observations 1996 Dec. 11-12.

・ 光度変化

        m1 = 18 + 5 logΔ + 10.0 log r

---------------------------------------------------------------------

軌道要素は Dr. Brian G. Marsden の計算によるもので、 M.P.E.C. 1997-K12 に掲載されたものです。
光度グラフはComet for Windowsで作成したものです。

---------------------------------------------------------------------

Copyright(C) Seiichi Yoshida (comet@aerith.net). All rights reserved.